#timestamp,LO_Frequency,Hit,StdDev 
1508605215.3,286047000.7,N
1508605235.2,286047000.6,N
1508605255.9,286047000.0,N
1508605275.7,286047002.8,N
1508605295.6,286047000.3,N
1508605315.4,286047000.0,N
1508605335.2,286047001.0,N
1508605355.1,286046998.2,N
1508605356.0,286046998.2,N
1508605375.8,286047002.3,N
1508605395.7,286047001.0,N
1508605415.5,286047000.9,N
1508605435.3,286047000.5,N
1508605455.2,286047000.1,N
1508605475.0,286047000.8,N
1508605475.9,286047000.8,N
1508605495.8,286046998.7,N
1508605515.6,286046998.6,N
1508605535.4,286046998.6,N
1508605555.3,286046998.1,N
1508605575.1,286047001.2,N
1508605576.0,286047001.2,N
1508605595.8,286046999.9,N
1508605615.7,286046999.8,N
1508605635.5,286047000.6,N
1508605655.3,286047000.0,N
1508605675.2,286047001.8,N
1508605695.0,286047001.9,N
1508605695.9,286047001.9,N
1508605715.8,286046999.8,N
1508605735.6,286047001.1,N
1508605755.4,286046998.4,N
1508605775.3,286046999.3,N
1508605795.1,286046998.7,N
1508605815.9,286046999.2,N
1508605835.7,286046998.9,N
1508605855.5,286047000.6,N
1508605875.4,286046998.8,N
1508605895.2,286047000.8,N
1508605915.0,286047000.1,N
1508605915.9,286047000.1,N
1508605935.8,286047002.8,N
1508605955.6,286047001.2,N
1508605975.5,286046999.4,N
1508605995.3,286047000.3,N
1508606015.1,286047000.0,N
1508606035.9,286047002.8,N
1508606055.7,286047000.3,N
1508606075.6,286047000.4,N
1508606095.4,286047000.5,N
1508606115.2,286046999.9,N
1508606135.1,286046998.1,N
1508606136.0,286046998.1,N
1508606155.8,286047001.1,N
1508606175.6,286046999.0,N
1508606195.5,286046998.7,N
1508606215.3,286047000.2,N
1508606235.2,286047001.2,N
1508606255.9,286046998.8,N
1508606275.7,286047000.4,N
1508606295.6,286046998.6,N
1508606315.4,286046998.6,N
1508606335.2,286046998.6,N
1508606355.1,286046998.2,N
1508606356.0,286046998.2,N
1508606375.8,286046999.1,N
1508606395.7,286046999.2,N
1508606415.5,286046998.1,N
1508606435.3,286047001.1,N
1508606455.2,286047000.8,N
1508606475.9,286046998.1,N
1508606495.7,286047000.9,N
1508606515.6,286046999.9,N
1508606535.4,286047002.8,N
1508606555.3,286047001.5,N
1508606575.1,286047001.5,N
1508606576.0,286047001.5,N
1508606595.8,286047000.2,N
1508606615.7,286047002.7,N
1508606635.5,286047000.5,N
1508606655.3,286047000.4,N
1508606675.2,286046999.7,N
1508606695.0,286047001.9,N
1508606695.9,286047001.9,N
1508606715.8,286047002.0,N
1508606735.6,286047002.5,N
1508606755.4,286047002.5,N
1508606775.3,286047001.1,N
1508606795.1,286046998.7,N
1508606815.9,286046998.8,N
1508606835.7,286046999.0,N
1508606855.5,286046998.6,N
1508606875.4,286047001.0,N
1508606895.2,286046998.8,N
1508606915.0,286046997.4,N
1508606915.9,286046997.4,N
1508606935.8,286046997.3,N
1508606955.6,286046999.4,N
1508606975.5,286046999.1,N
1508606995.3,286046996.7,N
1508607015.1,286046997.4,N
1508607035.9,286046996.8,N
1508607055.7,286046999.2,N
1508607075.6,286046999.5,N
1508607095.4,286046997.1,N
1508607115.2,286046999.0,N
1508607135.1,286046999.6,N
1508607136.0,286046999.6,N
1508607155.8,286046997.8,N
1508607175.7,286046995.4,N
1508607195.5,286046995.1,N
1508607215.3,286046997.9,N
1508607235.2,286046994.9,N
1508607255.0,286046997.8,N
1508607255.9,286046997.8,N
1508607275.7,286046997.6,N
1508607295.6,286046995.4,N
1508607315.4,286046993.3,Y
1508607335.3,286046997.3,P
1508607355.1,286046997.2,P
1508607356.0,286046997.2,P
1508607375.8,286046997.4,Y
1508607395.7,286047000.8,P
1508607415.5,286046999.9,N
1508607435.4,286047002.8,N
1508607455.2,286046999.9,N
1508607475.0,286047000.3,N
1508607475.9,286047000.3,N
1508607495.8,286047000.3,N
1508607515.6,286047001.2,N
1508607535.4,286047000.5,N
1508607555.3,286047000.6,N
1508607575.1,286047002.7,N
1508607595.9,286046999.9,N
1508607615.7,286047000.5,N
1508607635.6,286047000.1,N
1508607655.4,286046998.1,N
1508607675.2,286046998.9,N
1508607695.1,286046996.5,N
1508607696.0,286046996.5,N
1508607715.8,286046999.2,N
1508607735.6,286046998.7,N
1508607755.5,286046998.8,N
1508607775.3,286046998.6,N
1508607795.2,286046998.1,N
1508607815.9,286047002.7,N
1508607835.7,286047002.3,N
1508607855.6,286047000.1,N
1508607875.4,286047000.3,N
1508607895.2,286046999.1,N
1508607915.1,286046998.9,N
1508607916.0,286046998.9,N
1508607935.8,286046999.4,N
1508607955.7,286046999.2,N
1508607975.5,286046999.6,N
1508607995.3,286046996.5,N
1508608015.2,286046997.5,N
1508608035.0,286046996.9,N
1508608035.9,286046996.9,N
1508608055.7,286046996.8,N
1508608075.6,286046995.0,N
1508608095.4,286046997.8,N
1508608115.3,286046995.4,N
1508608135.1,286046995.4,N
1508608155.8,286046995.4,N
1508608175.7,286046995.4,N
1508608195.5,286046997.7,N
1508608215.4,286046997.5,N
1508608235.2,286046997.2,N
1508608255.0,286046995.1,N
1508608255.9,286046995.1,N
1508608275.8,286046996.3,N
1508608295.6,286046993.7,Y
1508608315.4,286046997.4,P
1508608335.3,286046999.5,N
1508608355.1,286046996.6,P
1508608375.9,286046999.6,N
1508608395.7,286046997.2,N
1508608415.5,286046999.0,N
1508608435.4,286046996.9,N
1508608455.2,286046997.3,N
1508608475.0,286046996.7,Y
1508608475.9,286046996.7,P
1508608495.8,286046999.8,N
1508608515.6,286047000.4,N
1508608535.5,286047001.0,N
1508608555.3,286047000.5,N
1508608575.1,286047000.7,N
1508608595.9,286047001.2,N
1508608615.7,286046998.4,N
1508608635.6,286046998.2,N
1508608655.4,286046996.6,N
1508608675.2,286046999.1,N
1508608695.1,286047000.7,N
1508608696.0,286047000.7,N
1508608715.8,286047000.9,N
1508608735.6,286047000.3,N
1508608755.5,286047000.8,N
1508608775.3,286047000.4,N
1508608795.2,286047000.7,N
